Погода в Сумарокове

Россия / Костромская область     58°12′24″N   41°47′47″E
темп.,
°C
ветер,
м/с
пор.,
м/с
влажн.,
%
обл.,
%
осадки,
мм/ч
давл.,
гПа
погр.,
м
20 января, чт
чт2000:00−9ююз51394100 0.1 1007409
03:00−8ююз51493100 0.3 1005442
06:00−6ююз61493100 0.5 1003541
09:00−6ююз61393100 0.7 1003541
12:00−5ююз61292100 0.2 1003488
15:00−4ююз51293100 0.2 1002532
18:00−4ю61393100 0.1 1002564
21:00−5ю61392100 0.1 1002649
21 января, пт
пт2100:00−5ю61491100 0.1 1002667
03:00−7ю61391100 0.2 1003563
06:00−8ю51293100 0.1 1003522
09:00−9ююв51194100 0.6 1005464
12:00−7ююв51193100 0.4 1005530
15:00−7юв51193100 0.8 1005601
18:00−8юв61391100 0.3 1005572
21:00−8юв61393100 0.6 1006667
22 января, сб
сб2200:00−8вюв51291100 0.1 1007550
03:00−8в51193100 0.1 1007580
06:00−9вюв51293100 0.3 1008599
09:00−9вюв5139199 0.4 1010541
12:00−6юв51192100 0.1 1012638
15:00−5юв4992100 0.2 1015602
18:00−8вюв499499 0.1 1018368
21:00−10вюв389586 0.2 1021231
23 января, вс
вс2300:00−15в249990 0.0 102358
03:00−15в269984 0.1 102488
06:00−17всв2310091 0.0 102644
09:00−16в2699100 0.0 102898
12:00−10всв2593100 0.0 1028193
15:00−8ссв2695100 0.5 1028312
18:00−9св249771 0.6 1030121
21:00−15св1110088 0.6 10329
24 января, пн
пн2400:00−15всв119984 0.1 10339
03:00−16сз0010094 0.1 10349
06:00−18ююв1110095 0.1 10349
09:00−20юв00100100 0.1 10359
12:00−11ююв1295100 0.0 1034112
15:00−8юв139592 0.0 1032144
18:00−12юв1110093 0.0 10319
21:00−12ююв2498100 0.0 103073